Location: Bois Neuf
(42.7667°N, 0.6333°E)
Time: 18:23:56
(UTC+00:00)

Cosmos 1626 Rocket - Pass Details

Date: 07 June 2020
Orbit: 604 x 630 km, 82.5° (Epoch: 09 July)

Event Time Altitude Azimuth Distance (km) Brightness Sun altitude
Exits shadow 00:34:40 40° 278° (W) 912 4.3 -23.9°
Maximum altitude 00:34:48 40° 283° (WNW) 911 4.4 -23.9°
Drops below altitude 10° 00:38:56 10° 353° (N) 1,982 7.1 -23.7°
Sets 00:41:17 0° 1° (N) 2,896 8.4 -23.6°
